Flag for Germany Weather past 2 weeks in Göttingen, Lower Saxony, Germany

Now
43 °F

Overcast.


Feels Like: 38 °F
Forecast: 36 / 52 °F
Wind: 8 mph from Northwest

Location: Kassel / Calden

Current Time: Apr 28, 2015 at 12:30:16 AM

Latest Report: Apr 27, 2015 at 9:50 PM


Visibility: N/A

Pressure: 29.77 "Hg

Humidity: 93%

Dew point: 41 °F

Location of GöttingenLocation

Historic Weather in Göttingen — Graph

°F

Göttingen temperature yesterday

Maximum temperature yesterday: 52 °F (at 8:50 AM)
Minimum temperature yesterday: 43 °F (at 4:20 PM)
Average temperature yesterday: 46 °F

Past Weeks' High & Low Weather Summary

 TemperatureHumidityPressure
High73 °F (Apr 15, 3:50 PM)100% (Apr 23, 6:50 AM)30.42 "Hg (Apr 23, 6:50 AM)
Low30 °F (Apr 19, 6:20 AM)26% (Apr 21, 6:20 PM)29.56 "Hg (Apr 27, 6:20 AM)
Average52 °F63%30.09 "Hg
* Reported Apr 12 9:20 PM — Apr 27 9:50 PM, Göttingen, Weather by CustomWeather, © 2015

Note: Actual official high and low records may vary slightly from our data, if they occured in-between our weather recording intervals... More about our weather records

Advertising

Göttingen weather history for previous 24 hours

 ConditionsComfort  
Time TempWeatherWind HumidityBarometerVisibility
9:50 PM
Mon, Apr 27
43 °FOvercast.8 mph93%29.77 "HgN/A
9:20 PM43 °FOvercast.8 mph93%29.77 "HgN/A
8:50 PM43 °FLight rain. Partly sunny.8 mph93%29.77 "HgN/A
8:20 PM43 °FLight rain. Overcast.12 mph93%29.74 "Hg6 mi
7:50 PM43 °FLight rain. Cloudy.12 mph93%29.74 "Hg6 mi
7:20 PM43 °FLight rain. More clouds than sun.13 mph100%29.74 "Hg5 mi
6:50 PM43 °FLight rain. Cloudy.12 mph100%29.74 "Hg5 mi
6:20 PM45 °FLight rain. Cloudy.14 mph93%29.71 "Hg5 mi
5:20 PM45 °FLight rain. Low clouds.13 mph93%29.74 "Hg5 mi
4:50 PM43 °FLight rain. Low clouds.15 mph100%29.71 "Hg5 mi
4:20 PM43 °FLight rain. Low clouds.16 mph100%29.71 "Hg5 mi
3:50 PM45 °FLight rain. Mostly cloudy.16 mph93%29.71 "Hg4 mi
3:20 PM45 °FLight rain. Low clouds.17 mph93%29.71 "Hg4 mi
2:50 PM45 °FLight rain. Low clouds.16 mph100%29.71 "HgN/A
2:20 PM45 °FFog.14 mph100%29.68 "Hg2 mi
1:50 PM45 °FDrizzle. Low clouds.15 mph100%29.68 "Hg2 mi
1:20 PM46 °FMore clouds than sun.14 mph100%29.68 "HgN/A
12:50 PM48 °FMostly cloudy.15 mph94%29.68 "Hg5 mi
12:20 PM48 °FDrizzle. Mostly cloudy.14 mph94%29.68 "Hg4 mi
11:50 AM48 °FPartly sunny.13 mph100%29.65 "Hg5 mi
11:20 AM48 °FDrizzle. Low clouds.13 mph100%29.65 "Hg3 mi
10:50 AM48 °FDrizzle. Low clouds.10 mph100%29.65 "Hg2 mi
10:20 AM50 °FDrizzle. Low clouds.13 mph94%29.62 "Hg2 mi
9:50 AM50 °FLight rain. Partly sunny.14 mph94%29.62 "Hg4 mi
9:20 AM50 °FLight rain. Low clouds.10 mph100%29.62 "Hg2 mi
8:50 AM52 °FLight rain. Low clouds.10 mph94%29.59 "Hg2 mi
8:20 AM50 °FLight rain. Partly sunny.8 mph100%29.59 "Hg2 mi
7:50 AM50 °FLight rain. Partly sunny.8 mph100%29.59 "Hg2 mi
7:20 AM50 °FLight rain. Fog.7 mph100%29.59 "Hg1 mi
6:50 AM50 °FLight rain. Fog.6 mph100%29.56 "Hg2 mi
6:20 AM50 °FLight rain. Fog.9 mph100%29.56 "Hg1 mi
Weather by CustomWeather, © 2015

See weather overviewHow to use our weather pages